Location: Ansan
(43.6898°N, 0.7731°E)
Time: 21:50:32
(UTC+00:00)

CZ-2C R/B - Pass Details

Date: 15 May 2026
Orbit: 702 x 901 km, 98.2° (Epoch: 10 June)

Event Time Altitude Azimuth Distance (km) Brightness Sun altitude
Rises 23:01:39 0° 21° (NNE) 3,512 7.2 -26.2°
Reaches altitude 10° 23:04:17 10° 30° (NNE) 2,579 6.3 -26.3°
Enters shadow 23:09:28 35° 94° (E) 1,420 4.2 -26.5°
